#timestamp,LO_Frequency,Hit,StdDev 
1649703615.2,286046998.1,N
1649703635.0,286047000.3,N
1649703635.9,286047000.3,N
1649703655.8,286046999.7,N
1649703675.6,286046999.8,N
1649703695.4,286046999.9,N
1649703715.3,286047002.7,N
1649703735.1,286047002.7,N
1649703755.9,286046999.9,N
1649703775.7,286047000.7,N
1649703795.5,286047000.0,N
1649703815.4,286047002.8,N
1649703835.2,286047000.9,N
1649703855.0,286047000.0,N
1649703856.0,286047000.0,N
1649703875.8,286047002.4,N
1649703895.6,286047002.1,N
1649703915.5,286047001.9,N
1649703935.3,286047002.7,N
1649703955.1,286047001.3,N
1649703975.9,286047000.2,N
1649703995.7,286047002.7,N
1649704015.6,286047000.2,N
1649704035.4,286047002.8,N
1649704055.2,286047001.9,N
1649704075.1,286047002.7,N
1649704076.0,286047002.7,N
1649704095.8,286046996.8,N
1649704115.6,286046999.6,N
1649704135.5,286046999.7,N
1649704155.3,286047002.2,N
1649704175.2,286047000.0,N
1649704195.9,286047002.7,N
1649704215.7,286047000.3,N
1649704235.6,286046999.1,N
1649704255.4,286046999.1,N
1649704275.3,286046999.3,N
1649704295.1,286047000.8,N
1649704296.0,286047000.8,N
1649704315.8,286047000.8,N
1649704335.7,286047001.0,N
1649704355.5,286047001.1,N
1649704375.4,286046998.1,N
1649704395.2,286047001.2,N
1649704415.0,286047000.1,N
1649704415.9,286047000.1,N
1649704435.8,286046999.9,N
1649704455.6,286046999.7,N
1649704475.4,286047001.5,N
1649704495.3,286047002.2,N
1649704515.1,286047000.2,N
1649704535.9,286046998.6,N
1649704555.7,286046998.7,N
1649704575.5,286047000.5,N
1649704595.4,286046998.1,N
1649704615.2,286047001.1,N
1649704635.0,286047000.0,N
1649704635.9,286047000.0,N
1649704655.8,286047001.8,N
1649704675.6,286047006.0,Y
1649704695.5,286047005.5,P
1649704715.3,286047005.2,N
1649704735.1,286047005.2,N
1649704755.9,286047005.4,N
1649704775.7,286047005.9,N
1649704795.6,286047001.5,N
1649704815.4,286047002.3,N
1649704835.2,286047002.2,N
1649704855.1,286047001.3,N
1649704856.0,286047001.3,N
1649704875.8,286047002.4,N
1649704895.6,286046999.8,N
1649704915.5,286047002.4,N
1649704935.3,286047002.1,N
1649704955.2,286047002.8,N
1649704975.9,286047001.6,N
1649704995.7,286047001.3,N
1649705015.6,286047001.3,N
1649705035.4,286047001.7,N
1649705055.2,286047002.2,N
1649705075.1,286047004.3,N
1649705076.0,286047004.3,N
1649705095.8,286047001.4,N
1649705115.7,286047001.9,N
1649705135.5,286047003.4,N
1649705155.3,286047002.1,N
1649705175.2,286047002.2,N
1649705195.0,286047002.3,N
1649705195.9,286047002.3,N
1649705215.7,286047002.8,N
1649705235.6,286047002.2,N
1649705255.4,286047002.3,N
1649705275.3,286046999.8,N
1649705295.1,286047001.6,N
1649705296.0,286047001.6,N
1649705315.8,286047002.6,N
1649705335.7,286047004.3,Y
1649705355.5,286047000.3,P
1649705375.4,286047002.0,N
1649705395.2,286047000.6,N
1649705415.0,286047000.7,N
1649705415.9,286047000.7,N
1649705435.8,286047002.3,Y
1649705455.6,286047000.0,P
1649705475.4,286047000.0,N
1649705495.3,286046999.9,N
1649705515.1,286047002.8,Y
1649705535.9,286046999.1,P
1649705555.7,286046997.5,P
1649705575.5,286046998.2,N
1649705595.4,286047000.9,N
1649705615.2,286047000.3,N
1649705635.0,286047002.0,N
1649705636.0,286047002.0,N
1649705655.8,286047000.4,N
1649705675.6,286047001.6,N
1649705695.5,286047001.7,N
1649705715.3,286047001.5,N
1649705735.1,286047002.2,N
1649705755.9,286046999.9,N
1649705775.7,286046999.8,N
1649705795.6,286046999.0,N
1649705815.4,286046997.0,N
1649705835.2,286046995.6,N
1649705855.1,286046997.8,N
1649705856.0,286046997.8,N
1649705875.8,286046999.2,N
1649705895.6,286046998.8,N
1649705915.5,286047000.5,N
1649705935.3,286046999.7,N
1649705955.2,286047002.6,N
1649705975.9,286047000.2,N
1649705995.7,286047000.0,N
1649706015.6,286047002.8,N
1649706035.4,286047002.0,N
1649706055.2,286047003.8,N
1649706075.1,286047001.4,N
1649706076.0,286047001.4,N
1649706095.8,286047004.3,N
1649706115.7,286047001.7,N
1649706135.5,286047004.1,N
1649706155.3,286047002.2,N
1649706175.2,286047000.4,N
1649706195.0,286047004.4,N
1649706195.9,286047004.4,N
1649706215.7,286047003.6,N
1649706235.6,286047002.2,N
1649706255.4,286047002.4,N
1649706275.3,286047004.3,N
1649706295.1,286047005.9,N
1649706296.0,286047005.9,N
1649706315.8,286047001.4,N
1649706335.7,286047003.7,N
1649706355.5,286047004.4,N
1649706375.3,286046999.7,N
1649706395.2,286047000.8,N
1649706415.0,286046998.8,N
1649706415.9,286046998.8,N
1649706435.8,286046998.9,N
1649706455.6,286046998.9,N
1649706475.4,286047001.0,N
1649706495.3,286047000.0,N
1649706515.1,286047002.0,N
1649706535.9,286047000.2,N
1649706555.7,286047002.4,N
1649706575.5,286046999.8,N
1649706595.4,286047000.5,N
1649706615.2,286046998.7,N
1649706635.1,286047000.2,N
1649706636.0,286047000.2,N
1649706655.8,286047000.1,N
1649706675.6,286047000.6,N
1649706695.5,286047000.0,N
1649706715.3,286047000.5,N
1649706735.1,286046999.7,N
1649706755.9,286046999.7,N
1649706775.7,286046998.6,N
1649706795.6,286046998.1,N
1649706815.4,286046999.4,N
1649706835.2,286046996.5,N
1649706855.1,286046996.6,N
1649706856.0,286046996.6,N
1649706875.8,286046998.4,N
1649706895.6,286046998.9,N
1649706915.5,286046996.9,N
1649706935.3,286046997.7,N
1649706955.2,286046996.6,N
1649706975.9,286046996.5,N
1649706995.7,286046997.0,N
1649707015.6,286047001.1,N
1649707035.4,286046998.4,N
1649707055.2,286046999.8,N
1649707075.1,286047002.8,N
1649707076.0,286047002.8,N
1649707095.8,286047002.0,N
1649707115.7,286047002.8,N
1649707135.5,286046998.4,N
1649707155.3,286046998.7,N
1649707175.2,286046999.2,N
1649707195.0,286046997.8,N
1649707195.9,286046997.8,N
